STARLINK-30536

operational
NORAD ID: 57993 Int'l Des: 2023-153 Owner: SPXS Country: US Constellation: starlink
LEOCIRCULAR

About STARLINK-30536

Description loading...

Live Position

Loading 3D Globe...

Upcoming Passes

Altitude History

Altitude vs Time

uPlot chart will show altitude changes over time

Two-Line Element Set

1 57993U 23153C 25251.54390201 -.00000472 00000-0 -19861-4 0 9990
2 57993 43.0048 338.7641 0001495 270.6698 89.3973 15.02531503107476
Epoch: Sep 8, 2025 • Age: 14 hours

Current Status

Altitude 569.0 km
Velocity 7.58 km/s
Sub-Earth Point -36.98°S, 177.32°E
Launch Date Oct 5, 2023
Age 1.9 years
Type internet

Technical Details

Classification Payload
Mass 730.00 kg
Dry Mass 700.00 kg
Total Mass 730.00 kg
Length 0.30 m
Diameter 4.10 m
Span 29.00 m
Shape Box + pan
Manufacturer SPXS
Bus Type Starlink V2M
Phase Status In Orbit
Owner/State SPXS/US

Large Constellations

Loading constellations...